GW3793 Weather Reports


Display with metric or nautical units.
time (UTC)temp
F
wind
direction
speed
MPH
gust
MPH
rain 1hr
in
rain 24hr
in
rain mn
in
humidity
%
barometer
mb
20260901020903 62 165 3.0 7.0 0.00 0.00 0.00 67 1011.6
20260901020006 62 163 3.0 8.0 0.00 0.00 0.00 67 1011.7
20260901015404 63 165 3.0 7.0 0.00 0.00 0.00 66 1011.6
20260901014503 63 153 3.0 10.0 0.00 0.00 0.00 66 1011.6
20260901013603 63 157 3.0 6.0 0.00 0.00 0.00 65 1012.1
20260901012703 64 156 3.0 6.0 0.00 0.00 0.00 64 1012.1
20260901011803 64 160 3.0 11.0 0.00 0.00 0.00 63 1012.2
20260901011118 64 168 3.0 11.0 0.00 0.00 0.00 63 1012.1
20260901010003 64 162 3.0 7.0 0.00 0.00 0.00 62 1012.1
20260901005403 64 170 2.0 8.0 0.00 0.00 0.00 63 1012.1
20260901004716 65 156 3.0 9.0 0.00 0.00 0.00 62 1012.0
20260901003818 65 155 2.0 9.0 0.00 0.00 0.00 62 1012.3
20260901002704 65 133 2.0 8.0 0.00 0.00 0.00 62 1012.3
20260901001803 65 158 2.0 5.0 0.00 0.00 0.00 61 1012.4
20260901001118 65 139 1.0 5.0 0.00 0.00 0.00 61 1012.4
20260901000003 65 108 2.0 5.0 0.00 0.00 0.00 60 1012.5
20260831235403 66 107 2.0 9.0 0.00 0.00 0.00 60 1012.4
20260831234718 66 138 2.0 9.0 0.00 0.00 0.00 58 1012.5
20260831233817 66 173 3.0 8.0 0.00 0.00 0.00 59 1012.6
20260831232703 67 171 2.0 8.0 0.00 0.00 0.00 55 1012.8
20260831231804 67 162 3.0 5.0 0.00 0.00 0.00 51 1012.5
20260831231117 67 168 4.0 8.0 0.00 0.00 0.00 54 1013.0
20260831230003 67 165 4.0 7.0 0.00 0.00 0.00 53 1013.0
20260831225403 67 171 4.0 8.0 0.00 0.00 0.00 51 1012.8
20260831224503 67 175 3.0 9.0 0.00 0.00 0.00 54 1012.9
20260831223603 67 175 4.0 8.0 0.00 0.00 0.00 53 1012.9
20260831222918 68 167 4.0 9.0 0.00 0.00 0.00 52 1013.4
20260831221803 68 177 3.0 7.0 0.00 0.00 0.00 52 1013.1
20260831220905 68 170 4.0 9.0 0.00 0.00 0.00 51 1013.4
20260831220219 68 171 4.0 9.0 0.00 0.00 0.00 50 1013.4
20260831215404 68 187 4.0 11.0 0.00 0.00 0.00 54 1013.3
20260831214504 67 177 3.0 8.0 0.00 0.00 0.00 55 1013.3
20260831213606 66 179 2.0 6.0 0.00 0.00 0.00 56 1013.4
20260831212704 67 188 3.0 7.0 0.00 0.00 0.00 58 1013.4
20260831211803 66 168 4.0 9.0 0.00 0.00 0.00 61 1013.7
20260831210904 65 137 3.0 11.0 0.00 0.00 0.00 61 1013.4
20260831210005 65 135 3.0 10.0 0.00 0.00 0.00 61 1013.5
20260831205403 64 123 3.0 10.0 0.00 0.00 0.00 62 1013.8
20260831204503 64 117 3.0 13.0 0.00 0.00 0.00 62 1013.8
20260831203603 64 120 4.0 12.0 0.00 0.00 0.00 62 1014.1
20260831202703 65 148 4.0 11.0 0.00 0.00 0.00 61 1013.9
20260831201803 65 160 4.0 10.0 0.00 0.00 0.00 61 1014.3
20260831200903 65 154 4.0 10.0 0.00 0.00 0.00 62 1014.3
20260831200003 65 165 4.0 11.0 0.00 0.01 0.00 62 1014.2
20260831195619 64 168 4.0 9.0 0.00 0.01 0.00 62 1014.2
20260831194503 63 168 5.0 13.0 0.00 0.01 0.00 66 1014.4
20260831193603 63 170 5.0 11.0 0.00 0.02 0.00 66 1014.6
20260831192703 63 158 4.0 10.0 0.00 0.02 0.00 65 1014.8
20260831191803 63 154 4.0 13.0 0.00 0.02 0.00 64 1014.8
20260831190903 63 170 5.0 13.0 0.00 0.02 0.00 66 1014.9
20260831190003 61 153 4.0 13.0 0.00 0.02 0.00 69 1015.0
20260831185403 61 149 4.0 13.0 0.00 0.02 0.00 69 1015.1
20260831184503 60 147 4.0 17.0 0.00 0.03 0.00 70 1015.2
20260831183820 59 152 4.0 13.0 0.00 0.03 0.00 71 1015.3
20260831182917 59 158 4.0 12.0 0.00 0.04 0.00 71 1015.2
20260831181803 59 163 4.0 11.0 0.00 0.04 0.00 72 1015.5
20260831180903 59 167 5.0 11.0 0.00 0.05 0.00 72 1015.6
20260831180003 58 166 4.0 12.0 0.00 0.06 0.00 74 1015.5
20260831175403 57 170 5.0 14.0 0.00 0.07 0.00 78 1015.5
20260831174503 57 171 3.0 8.0 0.00 0.08 0.00 79 1015.6
20260831173603 57 175 4.0 11.0 0.00 0.09 0.00 79 1015.6
20260831172703 57 171 5.0 13.0 0.00 0.09 0.00 79 1015.6
20260831171803 57 161 5.0 15.0 0.00 0.10 0.00 80 1015.7
20260831170903 56 162 5.0 14.0 0.00 0.11 0.00 79 1015.6
20260831170003 57 164 6.0 13.0 0.00 0.11 0.00 79 1015.5
20260831165403 57 166 6.0 16.0 0.00 0.11 0.00 80 1015.2
20260831164717 56 166 5.0 17.0 0.00 0.12 0.00 81 1015.5
20260831163603 56 167 5.0 15.0 0.00 0.13 0.00 81 1015.3
20260831162703 55 161 5.0 13.0 0.00 0.14 0.00 84 1015.6
20260831161803 55 161 5.0 12.0 0.00 0.15 0.00 85 1015.3
20260831160903 54 168 5.0 14.0 0.00 0.15 0.00 87 1015.8
20260831160003 52 166 4.0 14.0 0.00 0.15 0.00 89 1015.8
20260831155618 52 164 4.0 11.0 0.00 0.16 0.00 89 1015.8
20260831154719 52 167 5.0 13.0 0.00 0.16 0.00 89 1015.9
20260831153818 52 157 4.0 11.0 0.00 0.17 0.00 91 1016.0
20260831152918 51 156 4.0 15.0 0.00 0.17 0.00 91 1016.1
20260831151804 51 162 4.0 10.0 0.00 0.17 0.00 91 1015.8
20260831150903 51 166 5.0 14.0 0.00 0.18 0.00 91 1016.0
20260831150218 51 163 5.0 17.0 0.00 0.18 0.00 92 1015.5
20260831145403 51 168 4.0 11.0 0.00 0.19 0.00 94 1015.9
20260831144504 51 154 3.0 9.0 0.00 0.19 0.00 93 1015.9
20260831143603 50 151 2.0 5.0 0.00 0.19 0.00 95 1015.8
20260831142703 50 139 3.0 6.0 0.00 0.19 0.00 95 1015.7
20260831141803 50 138 2.0 6.0 0.00 0.19 0.00 95 1015.9
20260831140903 50 144 2.0 5.0 0.00 0.19 0.00 95 1015.9
20260831140003 50 112 3.0 8.0 0.00 0.19 0.00 96 1015.7
20260831135403 50 116 3.0 8.0 0.00 0.20 0.00 96 1015.7
20260831134503 50 144 2.0 6.0 0.00 0.20 0.00 96 1015.6
20260831133603 50 125 2.0 5.0 0.00 0.20 0.00 96 1015.5
20260831132703 50 123 2.0 5.0 0.00 0.20 0.00 96 1015.7
20260831131803 50 140 2.0 4.0 0.00 0.20 0.00 96 1015.7
20260831130903 50 150 2.0 6.0 0.00 0.20 0.00 96 1015.8
20260831130003 50 133 2.0 5.0 0.00 0.20 0.00 96 1015.7
20260831125403 50 145 2.0 6.0 0.00 0.20 0.00 96 1015.8
20260831124503 50 136 2.0 6.0 0.00 0.20 0.00 96 1015.7
20260831123603 50 152 2.0 6.0 0.00 0.20 0.00 97 1015.9
20260831122703 50 155 2.0 5.0 0.00 0.20 0.00 97 1015.9
20260831121803 50 163 3.0 8.0 0.00 0.20 0.00 97 1016.0
20260831120903 50 162 2.0 6.0 0.00 0.20 0.00 97 1016.1
20260831120005 50 151 2.0 4.0 0.00 0.20 0.00 97 1015.9
20260831115403 50 149 2.0 4.0 0.00 0.20 0.00 97 1016.4
20260831114503 50 156 1.0 4.0 0.00 0.21 0.00 97 1016.0
20260831113603 50 128 1.0 4.0 0.00 0.21 0.00 97 1016.4
20260831112704 50 134 1.0 3.0 0.00 0.21 0.00 97 1016.1
20260831111803 50 155 2.0 4.0 0.00 0.21 0.00 97 1016.4
20260831110903 50 149 1.0 3.0 0.00 0.21 0.00 97 1016.2
20260831110218 50 134 1.0 3.0 0.00 0.21 0.00 97 1016.2
20260831105403 50 133 1.0 4.0 0.00 0.21 0.00 97 1016.6
20260831104503 50 145 1.0 5.0 0.00 0.21 0.00 97 1016.6
20260831103603 50 130 1.0 6.0 0.00 0.21 0.00 97 1016.4
20260831102703 50 121 2.0 6.0 0.00 0.21 0.00 97 1016.1
20260831102017 50 120 2.0 5.0 0.00 0.21 0.00 97 1016.1
20260831101116 50 118 2.0 6.0 0.00 0.21 0.00 97 1016.5
20260831100003 50 127 1.0 4.0 0.00 0.21 0.00 97 1016.4
20260831095403 50 123 1.0 4.0 0.00 0.21 0.00 97 1016.4
20260831094503 50 127 1.0 4.0 0.00 0.21 0.00 97 1016.6
20260831093603 49 145 0.0 3.0 0.00 0.21 0.00 96 1016.5
20260831092917 49 147 0.0 3.0 0.00 0.21 0.00 96 1016.7
20260831091803 49 153 0.0 2.0 0.00 0.21 0.00 96 1016.7
20260831091118 49 167 0.0 1.0 0.00 0.21 0.00 96 1016.5
20260831090003 49 206 0.0 2.0 0.00 0.21 0.00 96 1016.5
20260831085403 50 137 0.0 2.0 0.00 0.21 0.00 96 1016.5
20260831084503 50 115 1.0 4.0 0.00 0.21 0.00 96 1016.7
20260831083603 50 125 1.0 6.0 0.00 0.21 0.00 96 1016.6
20260831082703 51 124 1.0 6.0 0.00 0.21 0.00 96 1016.7
20260831082016 51 121 1.0 6.0 0.00 0.21 0.00 96 1016.9
20260831080903 51 137 0.0 3.0 0.00 0.21 0.00 96 1016.6
20260831080003 51 130 1.0 5.0 0.00 0.21 0.00 96 1016.9
20260831075403 51 159 0.0 3.0 0.00 0.21 0.00 96 1016.9
20260831074503 51 144 1.0 3.0 0.00 0.21 0.00 96 1017.1
20260831073603 51 145 0.0 2.0 0.00 0.21 0.00 96 1017.2
20260831072703 51 161 0.0 3.0 0.00 0.21 0.00 96 1017.1
20260831071803 51 169 1.0 3.0 0.00 0.21 0.00 96 1017.1
20260831070903 51 162 0.0 2.0 0.00 0.21 0.00 96 1016.9
20260831070003 51 152 0.0 2.0 0.00 0.21 0.00 96 1017.1
20260831065403 51 129 0.0 2.0 0.00 0.21 0.21 96 1017.2
20260831064503 51 110 0.0 2.0 0.00 0.21 0.21 96 1017.1
20260831063605 51 134 0.0 2.0 0.00 0.21 0.21 96 1017.5
20260831062919 51 140 0.0 2.0 0.00 0.21 0.21 96 1017.0
20260831061803 51 135 0.0 2.0 0.00 0.21 0.21 96 1017.2
20260831060903 51 113 0.0 2.0 0.00 0.21 0.21 96 1017.2
20260831060003 51 117 0.0 2.0 0.00 0.21 0.21 96 1017.1
20260831055618 51 108 0.0 2.0 0.00 0.21 0.21 96 1017.1
20260831054503 51 0 0.0 0.0 0.00 0.21 0.21 96 1017.4
20260831053603 51 13 0.0 1.0 0.00 0.21 0.21 95 1017.5
20260831052703 51 187 0.0 1.0 0.00 0.21 0.21 95 1017.5
20260831051803 51 145 0.0 3.0 0.00 0.21 0.21 95 1017.5
20260831050903 51 152 1.0 4.0 0.00 0.21 0.21 96 1017.6
20260831050218 51 114 0.0 1.0 0.00 0.21 0.21 95 1017.6
20260831045405 51 93 0.0 2.0 0.00 0.21 0.21 95 1017.6
20260831044503 51 27 0.0 2.0 0.00 0.21 0.21 95 1017.6
20260831043603 52 148 0.0 2.0 0.00 0.21 0.21 95 1017.4
20260831042703 52 0 0.0 0.0 0.00 0.21 0.21 95 1017.5
20260831041803 52 17 0.0 1.0 0.00 0.20 0.20 95 1017.7
20260831040903 52 0 0.0 0.0 0.00 0.20 0.20 95 1017.4
20260831040003 52 25 0.0 1.0 0.00 0.20 0.20 95 1017.7
20260831035617 52 20 0.0 1.0 0.00 0.20 0.20 95 1017.6
20260831034503 52 0 0.0 0.0 0.00 0.20 0.20 95 1017.1
20260831033603 52 0 0.0 0.0 0.00 0.20 0.20 94 1016.9
20260831032705 52 0 0.0 0.0 0.00 0.20 0.20 94 1017.0
20260831031803 52 0 0.0 0.0 0.00 0.20 0.20 94 1016.9
20260831030903 53 0 0.0 0.0 0.00 0.20 0.20 94 1017.1
20260831030003 53 0 0.0 0.0 0.00 0.20 0.20 94 1016.7
20260831025403 53 0 0.0 0.0 0.00 0.20 0.20 94 1016.8
20260831024503 53 15 0.0 1.0 0.00 0.20 0.20 94 1016.7
20260831023603 53 15 0.0 1.0 0.00 0.20 0.20 93 1016.8
20260831022703 53 0 0.0 0.0 0.00 0.20 0.20 93 1016.7
20260831021803 53 0 0.0 0.0 0.00 0.20 0.20 93 1016.7